Date String (YYYY-MM-DD hh:mm:ss) UTC,Instrument flags,absolute air pressure of the measurement (hPa),sample flow rate (lpm),inlet stack bypass flow (lpm),air temperature of the measurement (°C),ambient temperature measured by the external sensor (°C),aerosol sample conditioner tube jacket temperature (°C),OPC LED temperature (°C),internal box temperature (°C),relative humidity of the measurement (%),span deviation,mass concentration of particles derived from Lorenz-Mie calculation of OPC scattering (μg/m³),mass concentration of particles derived from Lorenz-Mie calculation of OPC scattering (μg/m³),mass concentration of particles derived from Lorenz-Mie calculation of OPC scattering (μg/m³)
DateTimeUTC,F1_M11,P_M11,Q1_M11,Q2_M11,T1_M11,T2_M11,T3_M11,T4_M11,T5_M11,U1_M11,ZSPAN_M11,X2_M11,X0_M11,X1_M11
2023-10-30 04:00:00,SystemResetWarning,0839.2,4.99,000.00,021.0,019.8,000.0,029.5,022.3,9.7,0000.0,0006.12,0007.94,0006.01
2023-10-30 04:01:00,SystemResetWarning,0839.2,4.99,000.00,021.0,019.7,000.0,029.5,022.2,9.7,0000.0,0006.14,0007.96,0006.03
2023-10-30 04:02:00,SystemResetWarning,0839.2,5.00,000.00,021.0,019.9,000.0,029.4,022.5,9.6,0000.0,0006.18,0008.01,0006.06
2023-10-30 04:03:00,SystemResetWarning,0839.3,5.02,000.00,021.1,020.8,000.0,029.4,022.9,9.6,0000.0,0006.21,0008.02,0006.09
2023-10-30 04:04:00,SystemResetWarning,0839.3,4.98,000.00,021.3,021.3,000.0,029.4,023.1,9.5,0000.0,0006.23,0008.03,0006.12
2023-10-30 04:05:00,SystemResetWarning,0839.3,5.00,000.00,021.3,021.2,000.0,029.4,023.0,9.5,0000.0,0006.27,0008.07,0006.14
2023-10-30 04:06:00,SystemResetWarning,0839.4,5.00,000.00,021.3,021.0,000.0,029.5,022.8,9.5,0000.0,0006.30,0008.13,0006.16
2023-10-30 04:07:00,SystemResetWarning,0839.3,5.01,000.00,021.2,020.7,000.0,029.5,022.7,9.5,0000.0,0006.32,0008.16,0006.18
2023-10-30 04:08:00,SystemResetWarning,0839.4,4.99,000.00,021.2,020.5,000.0,029.5,022.6,9.5,0000.0,0006.33,0008.16,0006.19
2023-10-30 04:09:00,SystemResetWarning,0839.3,5.01,000.00,021.2,020.3,000.0,029.5,022.5,9.5,0000.0,0006.34,0008.19,0006.20
2023-10-30 04:10:00,SystemResetWarning,0839.4,5.00,000.00,021.1,020.1,000.0,029.5,022.4,9.5,0000.0,0006.34,0008.17,0006.21
2023-10-30 04:11:00,SystemResetWarning,0839.4,5.00,000.00,021.1,020.0,000.0,029.5,022.4,9.5,0000.0,0006.35,0008.17,0006.22
2023-10-30 04:12:00,SystemResetWarning,0839.4,5.00,000.00,021.1,019.8,000.0,029.5,022.3,9.5,0000.0,0006.36,0008.18,0006.23
2023-10-30 04:13:00,SystemResetWarning,0839.4,5.00,000.00,021.0,019.7,000.0,029.5,022.2,9.5,0000.0,0006.36,0008.18,0006.23
2023-10-30 04:14:00,SystemResetWarning,0839.4,4.99,000.00,021.0,019.6,000.0,029.5,022.2,9.5,0000.0,0006.37,0008.19,0006.25
2023-10-30 04:15:00,SystemResetWarning,0839.4,5.01,000.00,021.0,020.1,000.0,029.4,022.6,9.5,0000.0,0006.39,0008.24,0006.25
2023-10-30 04:16:00,SystemResetWarning,0839.4,5.01,000.00,021.2,021.0,000.0,029.3,023.0,9.5,0000.0,0006.39,0008.26,0006.25
2023-10-30 04:17:00,SystemResetWarning,0839.3,4.99,000.00,021.3,021.3,000.0,029.4,023.1,9.4,0000.0,0006.37,0008.22,0006.24
2023-10-30 04:18:00,SystemResetWarning,0839.4,4.99,000.00,021.3,021.1,000.0,029.4,022.9,9.4,0000.0,0006.36,0008.20,0006.24
2023-10-30 04:19:00,SystemResetWarning,0839.4,5.01,000.00,021.2,020.9,000.0,029.5,022.8,9.4,0000.0,0006.37,0008.25,0006.22
2023-10-30 04:20:00,SystemResetWarning,0839.3,5.00,000.00,021.2,020.6,000.0,029.5,022.7,9.4,0000.2,0006.37,0008.28,0006.22
2023-10-30 04:21:00,SystemResetWarning,0839.4,5.00,000.00,021.2,020.4,000.0,029.5,022.6,9.4,0001.1,0006.37,0008.27,0006.21
2023-10-30 04:22:00,SystemResetWarning,0839.4,5.00,000.00,021.2,020.2,000.0,029.5,022.5,9.5,0001.6,0006.37,0008.27,0006.21
2023-10-30 04:23:00,SystemResetWarning,0839.4,5.00,000.00,021.1,020.1,000.0,029.5,022.4,9.5,0001.8,0006.36,0008.25,0006.20
2023-10-30 04:24:00,SystemResetWarning,0839.4,5.00,000.00,021.1,019.9,000.0,029.5,022.3,9.5,0001.9,0006.34,0008.23,0006.18
2023-10-30 04:25:00,SystemResetWarning,0839.4,4.99,000.00,021.0,019.8,000.0,029.5,022.3,9.5,0001.5,0006.32,0008.24,0006.15
2023-10-30 04:26:00,SystemResetWarning,0839.4,5.01,000.00,021.0,019.7,000.0,029.5,022.2,9.6,0001.2,0006.32,0008.25,0006.15
2023-10-30 04:27:00,SystemResetWarning,0839.4,5.00,000.00,021.0,019.6,000.0,029.5,022.2,9.6,0000.6,0006.30,0008.21,0006.14
2023-10-30 04:28:00,SystemResetWarning,0839.4,5.01,000.00,021.0,020.2,000.0,029.4,022.7,9.6,0000.3,0006.28,0008.20,0006.12
2023-10-30 04:29:00,SystemResetWarning,0839.4,4.99,000.00,021.2,021.2,000.0,029.3,023.1,9.5,0000.4,0006.29,0008.26,0006.10
2023-10-30 04:30:00,SystemResetWarning,0839.4,4.99,000.00,021.3,021.3,000.0,029.4,023.1,9.5,0000.5,0006.26,0008.20,0006.07
2023-10-30 04:31:00,SystemResetWarning,0839.4,4.99,000.00,021.3,021.1,000.0,029.5,022.9,9.4,0001.3,0006.22,0008.12,0006.05
2023-10-30 04:32:00,SystemResetWarning,0839.3,5.00,000.00,021.3,020.8,000.0,029.5,022.7,9.5,0000.5,0006.21,0008.12,0006.04
2023-10-30 04:33:00,SystemResetWarning,0839.3,5.01,000.00,021.2,020.6,000.0,029.5,022.6,9.5,-000.1,0006.19,0008.10,0006.03
2023-10-30 04:34:00,SystemResetWarning,0839.4,5.00,000.00,021.2,020.4,000.0,029.5,022.5,9.5,0000.7,0006.17,0008.09,0006.01
2023-10-30 04:35:00,SystemResetWarning,0839.3,5.00,000.00,021.1,020.2,000.0,029.5,022.4,9.5,0001.2,0006.16,0008.06,0006.00
2023-10-30 04:36:00,SystemResetWarning,0839.3,5.00,000.00,021.1,020.0,000.0,029.5,022.4,9.5,0001.3,0006.16,0008.03,0006.00
2023-10-30 04:37:00,SystemResetWarning,0839.4,5.01,000.00,021.1,019.9,000.0,029.5,022.3,9.5,0002.0,0006.12,0007.96,0005.98
2023-10-30 04:38:00,SystemResetWarning,0839.4,5.00,000.00,021.0,019.7,000.0,029.5,022.2,9.6,0002.6,0006.11,0007.95,0005.96
2023-10-30 04:39:00,SystemResetWarning,0839.3,5.00,000.00,021.0,019.8,000.0,029.4,022.3,9.6,0002.7,0006.10,0007.91,0005.96
2023-10-30 04:40:00,SystemResetWarning,0839.4,5.01,000.00,021.1,020.5,000.0,029.4,022.8,9.6,0002.9,0006.06,0007.82,0005.95
2023-10-30 04:41:00,SystemResetWarning,0839.3,5.00,000.00,021.2,021.3,000.0,029.4,023.1,9.5,0002.8,0006.05,0007.83,0005.95
2023-10-30 04:42:00,SystemResetWarning,0839.4,4.99,000.00,021.3,021.2,000.0,029.4,023.0,9.4,0002.7,0006.06,0007.87,0005.93
2023-10-30 04:43:00,SystemResetWarning,0839.4,4.99,000.00,021.3,021.0,000.0,029.5,022.8,9.4,0003.0,0006.05,0007.85,0005.92
2023-10-30 04:44:00,SystemResetWarning,0839.4,5.01,000.00,021.2,020.7,000.0,029.5,022.7,9.4,0000.0,0006.02,0007.82,0005.89
2023-10-30 04:45:00,SystemResetWarning,0839.3,5.00,000.00,021.2,020.5,000.0,029.5,022.6,9.5,0000.0,0006.01,0007.85,0005.87
2023-10-30 04:46:00,SystemResetWarning,0839.3,5.00,000.00,021.2,020.3,000.0,029.5,022.5,9.5,0000.0,0006.01,0007.89,0005.86
2023-10-30 04:47:00,SystemResetWarning,0839.3,5.00,000.00,021.1,020.2,000.0,029.5,022.4,9.5,0000.0,0006.01,0007.98,0005.85
2023-10-30 04:48:00,SystemResetWarning,0839.3,5.00,000.00,021.1,020.0,000.0,029.5,022.4,9.5,0000.0,0006.00,0008.00,0005.84
2023-10-30 04:49:00,SystemResetWarning,0839.2,5.00,000.00,021.1,019.9,000.0,029.5,022.3,9.5,0000.0,0005.98,0007.98,0005.82
2023-10-30 04:50:00,SystemResetWarning,0839.3,5.02,000.00,021.0,019.8,000.0,029.5,022.3,9.5,0000.0,0005.97,0007.98,0005.81
2023-10-30 04:51:00,SystemResetWarning,0839.2,5.00,000.00,021.0,020.0,000.0,029.4,022.5,9.5,0000.0,0005.98,0008.05,0005.82
2023-10-30 04:52:00,SystemResetWarning,0839.3,4.99,000.00,021.2,020.8,000.0,029.4,022.9,9.5,0000.0,0005.98,0008.08,0005.81
2023-10-30 04:53:00,SystemResetWarning,0839.3,5.00,000.00,021.3,021.4,000.0,029.4,023.1,9.4,0000.0,0005.96,0008.05,0005.81
2023-10-30 04:54:00,SystemResetWarning,0839.3,4.99,000.00,021.3,021.2,000.0,029.5,022.9,9.3,0000.0,0005.96,0008.05,0005.80
2023-10-30 04:55:00,SystemResetWarning,0839.2,5.01,000.00,021.3,021.0,000.0,029.5,022.8,9.3,0000.0,0005.96,0008.07,0005.79
2023-10-30 04:56:00,SystemResetWarning,0839.2,5.01,000.00,021.3,020.7,000.0,029.5,022.7,9.3,0000.0,0005.93,0008.04,0005.76
2023-10-30 04:57:00,SystemResetWarning,0839.3,5.01,000.00,021.2,020.5,000.0,029.5,022.6,9.3,0000.0,0005.90,0008.00,0005.74
2023-10-30 04:58:00,SystemResetWarning,0839.2,5.00,000.00,021.2,020.3,000.0,029.5,022.5,9.3,0000.0,0005.84,0007.91,0005.70
2023-10-30 04:59:00,SystemResetWarning,0839.2,4.99,000.00,021.1,020.1,000.0,029.5,022.4,9.4,0000.0,0005.80,0007.84,0005.67
